1531839600.2,64799,17.63,73346.0,4.89,2.31,2.21,0,*7C
1531839601.41,64800,17.63,73344.0,4.87,2.65,2.65,0,*7C
1531839602.61,64801,17.63,73342.5,4.87,2.35,2.35,0,*7D
1531839603.87,64802,17.63,73340.3,4.87,2.59,2.59,0,*7E
1531839605.07,64803,17.63,73346.5,4.85,2.73,2.61,0,*7E
1531839606.29,64804,17.63,73342.0,4.85,3.19,3.07,0,*75
1531839607.55,64805,17.63,73336.5,4.87,3.79,3.71,0,*71
1531839608.81,64806,17.63,73334.8,4.87,3.71,3.71,0,*7A
1531839609.99,64807,17.63,73334.0,4.85,3.89,3.89,0,*79
1531839611.19,64808,17.63,73338.3,4.87,4.15,4.11,0,*70
1531839612.39,64809,17.63,73342.3,4.89,3.97,3.93,0,*7F
1531839613.56,64810,17.63,73344.0,4.89,3.63,3.63,0,*73
1531839614.78,64811,17.63,73340.8,4.91,3.37,3.29,0,*74
1531839615.99,64812,17.63,73344.5,4.89,2.91,2.89,0,*78
1531839617.21,64813,17.63,73342.8,4.89,3.37,3.37,0,*70
1531839618.38,64814,17.63,73346.5,4.89,3.59,3.63,0,*7E
1531839619.62,64815,17.63,73344.3,4.91,4.01,3.97,0,*77
1531839620.83,64816,17.63,73346.0,4.91,4.07,4.07,0,*7C
1531839622.05,64817,17.63,73342.8,4.91,4.01,3.89,0,*7A
1531839623.32,64818,17.63,73344.5,4.93,3.75,3.45,0,*73
1531839624.57,64819,17.63,73340.3,4.93,2.73,2.73,0,*71
1531839625.84,64820,17.63,73342.8,4.93,3.03,3.03,0,*7B
1531839627.05,64821,17.63,73342.5,4.93,2.65,2.65,0,*7A
1531839628.28,64822,17.63,73344.3,4.93,3.03,2.95,0,*77
1531839629.54,64823,17.63,73336.0,4.91,3.15,3.07,0,*79
1531839630.74,64824,17.63,73342.5,4.89,3.25,3.23,0,*72
1531839631.93,64825,17.63,73342.8,4.89,2.31,2.21,0,*74
1531839633.13,64826,17.63,73342.8,4.89,2.31,2.17,0,*72
1531839634.36,64827,17.63,73344.3,4.87,2.51,2.35,0,*7B
1531839635.59,64828,17.63,73340.0,4.87,1.79,1.51,0,*7C
1531839636.79,64829,17.63,73348.8,4.85,1.79,1.67,0,*7A
1531839638.01,64830,17.63,73346.5,4.79,1.75,1.63,0,*79
1531839639.23,64831,17.63,73350.3,4.77,1.59,1.47,0,*7E
1531839640.5,64832,17.63,73358.3,4.79,1.85,1.85,0,*7C
1531839641.72,64833,17.63,73342.8,4.77,2.05,1.97,0,*7B
1531839642.95,64834,17.63,73316.8,4.77,2.43,2.39,0,*79
1531839644.15,64835,17.63,73332.3,4.75,2.99,2.99,0,*77
1531839645.38,64836,17.63,73348.3,4.75,2.73,2.61,0,*77
1531839646.63,64837,17.63,73332.3,4.75,2.55,2.55,0,*75
1531839647.88,64838,17.63,73328.5,4.75,2.85,2.85,0,*7A
1531839649.08,64839,17.63,73312.3,4.75,3.59,3.59,0,*7B
1531839650.31,64840,17.63,73316.0,4.77,4.05,4.05,0,*77
1531839651.5,64841,17.63,73352.3,4.77,4.07,4.07,0,*76
1531839652.68,64842,17.63,73344.8,4.77,3.93,3.93,0,*75
1531839653.89,64843,17.63,73356.3,4.81,4.01,3.89,0,*7A
1531839655.11,64844,17.63,73344.5,4.79,3.33,3.25,0,*7A
1531839656.35,64845,17.63,73346.3,4.79,2.91,2.81,0,*7D
1531839657.56,64846,17.63,73344.0,4.77,3.03,2.91,0,*7B
1531839658.73,64847,17.63,73340.3,4.81,3.63,3.63,0,*79
1531839659.95,64848,17.63,73346.5,4.81,3.97,4.01,0,*7E
1531839661.13,64849,17.63,73346.0,4.81,4.11,4.07,0,*70
1531839662.31,64850,17.63,73346.8,4.81,4.37,4.27,0,*7E
1531839663.54,64851,17.63,73346.8,4.87,4.31,4.27,0,*7F
1531839664.74,64852,17.63,73342.5,4.87,4.15,4.11,0,*7F
1531839665.94,64853,17.63,73342.3,4.87,4.11,4.11,0,*7A
1531839667.11,64854,17.63,73342.0,4.89,4.19,4.15,0,*7F
1531839668.31,64855,17.56,73340.0,4.89,4.23,4.31,0,*71
1531839669.52,64856,17.63,73346.5,4.93,4.27,4.23,0,*7E
1531839670.71,64857,17.63,73346.0,4.95,4.33,4.33,0,*7D
1531839671.91,64858,17.63,73344.5,4.93,4.27,4.27,0,*74
1531839673.15,64859,17.63,73348.3,4.95,4.31,4.31,0,*73
1531839674.33,64860,17.63,73348.3,4.95,4.49,4.53,0,*72
1531839675.51,64861,17.63,73346.8,4.95,3.81,3.93,0,*7B
1531839676.75,64862,17.63,73348.8,4.95,3.41,3.45,0,*7F
1531839677.93,64863,17.63,73346.5,4.95,2.99,2.95,0,*76
1531839679.16,64864,17.63,73342.5,4.95,2.25,2.13,0,*78
1531839680.42,64865,17.63,73340.5,4.93,1.85,1.71,0,*71
1531839681.66,64866,17.63,73334.5,4.91,2.09,1.93,0,*7B
1531839682.89,64867,17.63,73336.0,4.89,2.05,2.05,0,*73
1531839684.14,64868,17.63,73328.0,4.91,3.07,3.03,0,*71
1531839685.34,64869,17.63,73338.8,4.87,3.55,3.55,0,*73
1531839686.57,64870,17.63,73340.8,4.87,4.05,4.11,0,*7E
1531839687.8,64871,17.63,73344.8,4.87,4.11,4.05,0,*7F
1531839689.03,64872,17.63,73344.3,4.87,3.67,3.55,0,*78
1531839690.23,64873,17.63,73342.5,4.89,3.71,3.81,0,*79
1531839691.43,64874,17.63,73344.5,4.91,3.63,3.63,0,*78
1531839692.65,64875,17.63,73334.3,4.91,3.29,3.19,0,*7A
1531839693.85,64876,17.63,73342.0,4.91,3.85,3.89,0,*76
1531839695.06,64877,17.63,73346.3,4.89,4.05,4.07,0,*70
1531839696.28,64878,17.63,73348.0,4.89,3.53,3.49,0,*76
1531839697.5,64879,17.63,73346.8,4.89,3.53,3.49,0,*77
1531839698.72,64880,17.63,73344.8,4.89,3.23,3.23,0,*7A
1531839699.91,64881,17.63,73342.8,4.89,3.59,3.53,0,*71
1531839701.11,64882,17.63,73344.0,4.89,3.03,2.99,0,*7A
1531839702.34,64883,17.63,73346.0,4.87,2.85,2.65,0,*79
1531839703.59,64884,17.63,73338.0,4.87,2.89,2.73,0,*75
1531839704.82,64885,17.63,73340.5,4.85,1.93,1.67,0,*78
1531839706.04,64886,17.63,73334.8,4.81,2.13,2.01,0,*77
1531839707.26,64887,17.63,73324.0,4.81,2.01,1.97,0,*79
1531839708.52,64888,17.63,73332.8,4.79,1.97,1.85,0,*7E
1531839709.78,64889,17.63,73332.3,4.79,2.55,2.47,0,*7F
1531839711.03,64890,17.63,73336.0,4.79,2.47,2.59,0,*7B
1531839712.26,64891,17.63,73342.5,4.79,2.81,2.91,0,*74
1531839713.49,64892,17.63,73346.0,4.77,3.15,3.23,0,*7D
1531839714.73,64893,17.63,73338.8,4.77,3.41,3.37,0,*78
1531839715.98,64894,17.63,73338.8,4.75,2.85,2.89,0,*70
1531839717.19,64895,17.63,73338.0,4.77,3.23,3.25,0,*79
1531839718.42,64896,17.63,73336.8,4.77,3.03,2.89,0,*7F
1531839719.63,64897,17.63,73342.0,4.77,2.91,2.89,0,*74
1531839720.86,64898,17.56,73338.3,4.77,2.55,2.55,0,*72
1531839722.11,64899,17.63,73354.5,4.75,3.33,3.33,0,*71
1531839723.37,64900,17.63,73354.8,4.75,3.11,3.07,0,*77
1531839724.6,64901,17.63,73356.5,4.75,2.65,2.55,0,*72
1531839725.85,64902,17.63,73344.3,4.75,1.93,2.05,0,*7E
1531839727.07,64903,17.63,73336.3,4.73,2.01,1.89,0,*76
1531839728.27,64904,17.63,73328.5,4.73,2.47,2.27,0,*74
1531839729.49,64905,17.63,73330.8,4.73,2.77,2.73,0,*77
1531839730.7,64906,17.63,73334.0,4.73,3.25,3.33,0,*77
1531839731.93,64907,17.63,73336.8,4.73,3.67,3.67,0,*71
1531839733.14,64908,17.56,73330.8,4.73,3.79,3.81,0,*79
1531839734.31,64909,17.63,73336.3,4.73,3.59,3.55,0,*73
1531839735.53,64910,17.63,73322.5,4.73,2.89,2.73,0,*72
1531839736.76,64911,17.63,73338.8,4.73,2.13,2.25,0,*73
1531839737.96,64912,17.63,73324.3,4.73,3.45,3.25,0,*73
1531839739.19,64913,17.63,73334.3,4.73,3.49,3.45,0,*78
1531839740.39,64914,17.56,73338.0,4.73,3.79,3.81,0,*74
1531839741.61,64915,17.63,73338.0,4.73,4.01,4.01,0,*72
1531839742.8,64916,17.63,73338.5,4.73,3.89,3.93,0,*7A
1531839743.98,64917,17.63,73338.0,4.73,4.07,4.07,0,*70
1531839745.16,64918,17.63,73330.8,4.77,4.19,4.23,0,*72
1531839746.34,64919,17.63,73332.3,4.77,4.23,4.33,0,*7B
1531839747.55,64920,17.56,73328.3,4.79,4.37,4.45,0,*7B
1531839748.75,64921,17.63,73338.5,4.79,4.15,4.11,0,*7B
1531839749.96,64922,17.63,73336.0,4.79,4.15,4.15,0,*7C
1531839751.14,64923,17.63,73340.5,4.81,4.15,4.07,0,*79
1531839752.36,64924,17.63,73342.0,4.81,4.01,4.01,0,*7D
1531839753.56,64925,17.63,73336.3,4.81,4.01,4.07,0,*7A
1531839754.77,64926,17.63,73340.0,4.85,4.31,4.37,0,*7D
1531839755.95,64927,17.63,73344.8,4.85,4.53,4.53,0,*7A
1531839757.16,64928,17.63,73344.0,4.85,4.37,4.31,0,*73
1531839758.36,64929,17.63,73346.3,4.87,4.19,4.19,0,*76
1531839759.56,64930,17.63,73352.8,4.87,2.99,2.95,0,*72
1531839760.81,64931,17.63,73348.0,4.87,2.89,2.77,0,*7E
1531839762.03,64932,17.63,73296.3,4.89,2.89,2.81,0,*7A
1531839763.29,64933,17.63,73328.3,4.87,3.07,3.07,0,*7D
1531839764.55,64934,17.63,73310.8,4.87,3.37,3.45,0,*7F
1531839765.75,64935,17.63,73318.3,4.85,3.59,3.67,0,*74
1531839766.98,64936,17.63,73320.0,4.87,3.93,4.05,0,*70
1531839768.21,64937,17.63,73316.3,4.85,4.05,4.01,0,*7F
1531839769.43,64938,17.63,73328.5,4.87,4.01,4.11,0,*77
1531839770.6,64939,17.63,73328.0,4.85,4.11,4.11,0,*75
1531839771.78,64940,17.63,73332.3,4.89,4.15,4.19,0,*7B
1531839772.98,64941,17.63,73338.3,4.93,4.11,4.23,0,*7C
1531839774.19,64942,17.56,73340.0,4.91,4.33,4.37,0,*78
1531839775.38,64943,17.63,73338.5,4.91,4.19,4.27,0,*70
1531839776.6,64944,17.63,73334.3,4.93,4.27,4.33,0,*7D
1531839777.82,64945,17.56,73332.3,4.93,4.01,4.11,0,*78
1531839779.08,64946,17.56,73330.5,4.93,3.07,3.19,0,*75
1531839780.34,64947,17.56,73324.8,4.93,2.69,2.69,0,*7B
1531839781.6,64948,17.63,73334.5,4.93,2.59,2.59,0,*74
1531839782.85,64949,17.63,73336.0,4.91,2.81,3.03,0,*7C
1531839784.07,64950,17.63,73332.3,4.91,3.19,3.29,0,*7C
1531839785.32,64951,17.56,73332.8,4.91,3.41,3.53,0,*7D
1531839786.49,64952,17.63,73338.8,4.89,3.85,3.85,0,*74
1531839787.69,64953,17.63,73344.0,4.91,4.07,4.11,0,*7B
1531839788.89,64954,17.63,73336.5,4.91,4.07,4.19,0,*74
1531839790.08,64955,17.56,73324.3,4.91,4.23,4.19,0,*73
1531839791.34,64956,17.56,73326.8,4.91,3.67,3.67,0,*79
1531839792.56,64957,17.63,73322.5,4.91,3.63,3.53,0,*7B
1531839793.75,64958,17.63,73304.5,4.91,2.95,2.91,0,*73
1531839794.98,64959,17.63,73302.0,4.89,2.81,2.81,0,*7F
1531839796.18,64960,17.63,73302.3,4.89,3.67,3.63,0,*71
1531839797.38,64961,17.56,73294.3,4.89,3.81,3.75,0,*7F
1531839798.61,64962,17.63,73302.5,4.89,4.05,4.05,0,*77
1531839799.81,64963,17.63,73316.0,4.89,4.15,4.05,0,*77
1531839801.06,64964,17.56,73310.3,4.91,4.01,3.97,0,*70
1531839802.25,64965,17.63,73322.5,4.91,4.19,4.19,0,*79
1531839803.45,64966,17.56,73312.3,4.91,4.11,4.11,0,*7A
1531839804.65,64967,17.63,73322.0,4.91,4.23,4.11,0,*7A
1531839805.85,64968,17.56,73324.8,4.91,4.11,4.11,0,*74
1531839807.05,64969,17.63,73324.8,4.91,4.33,4.23,0,*74
1531839808.26,64970,17.63,73324.5,4.93,4.45,4.33,0,*7E
1531839809.44,64971,17.63,73330.3,4.95,4.41,4.37,0,*79
1531839810.63,64972,17.56,73322.8,4.95,4.53,4.53,0,*7B
1531839811.81,64973,17.56,73328.5,4.95,4.37,4.23,0,*7F
1531839813.0,64974,17.63,73324.5,4.95,4.11,3.89,0,*7B
1531839814.23,64975,17.63,73328.3,4.97,4.15,4.05,0,*7F
1531839815.43,64976,17.56,73322.0,4.97,4.27,4.15,0,*7C
1531839816.63,64977,17.56,73326.5,4.97,4.27,4.11,0,*79
1531839817.86,64978,17.56,73320.0,4.97,4.15,4.05,0,*72
1531839819.09,64979,17.56,73316.3,4.97,4.05,4.11,0,*77
1531839820.33,64980,17.63,73320.8,4.99,4.31,4.31,0,*7A
1531839821.51,64981,17.63,73320.5,4.99,4.07,4.07,0,*7B
1531839822.72,64982,17.56,73322.5,4.99,3.97,4.07,0,*76
1531839823.9,64983,17.56,73318.8,4.99,4.19,4.07,0,*76
1531839825.13,64984,17.56,73324.5,5.01,4.31,4.19,0,*74
1531839826.3,64985,17.63,73324.5,5.03,4.33,4.19,0,*75
1531839827.51,64986,17.56,73320.8,5.01,3.85,3.89,0,*70
1531839828.71,64987,17.56,73320.0,5.03,3.25,3.19,0,*70
1531839829.88,64988,17.63,73322.8,5.03,3.63,3.55,0,*75
1531839831.11,64989,17.63,73328.5,5.01,4.01,3.89,0,*74
1531839832.33,64990,17.63,73324.0,5.01,3.85,3.79,0,*78
1531839833.56,64991,17.56,73328.3,5.01,4.07,3.97,0,*74
1531839834.79,64992,17.56,73324.5,5.01,3.67,3.63,0,*7D
1531839836.01,64993,17.56,73330.0,5.01,3.85,3.79,0,*7B
1531839837.19,64994,17.56,73328.5,5.03,3.63,3.63,0,*7D
1531839838.42,64995,17.56,73328.0,5.03,3.67,3.67,0,*7C
1531839839.65,64996,17.56,73328.5,5.03,3.07,3.07,0,*7F
1531839840.88,64997,17.56,73328.8,5.01,2.65,2.69,0,*70
1531839842.09,64998,17.63,73334.0,4.99,2.09,1.83,0,*72
1531839843.29,64999,17.56,73334.8,4.97,1.79,1.75,0,*70
1531839844.55,65000,17.56,73332.5,4.93,1.17,1.25,0,*71
1531839845.81,65001,17.63,73334.0,4.93,1.89,1.85,0,*7D
1531839847.01,65002,17.56,73332.0,4.89,2.39,2.65,0,*70
1531839848.24,65003,17.56,73338.3,4.89,2.43,2.77,0,*7F
1531839849.44,65004,17.56,73334.5,4.89,3.25,3.41,0,*7D
1531839850.69,65005,17.56,73328.3,4.91,3.07,3.19,0,*78
1531839851.92,65006,17.63,73328.5,4.89,3.37,3.49,0,*74
1531839853.15,65007,17.63,73336.0,4.91,3.29,3.41,0,*7B
1531839854.4,65008,17.56,73336.3,4.87,3.37,3.45,0,*78
1531839855.6,65009,17.56,73332.5,4.89,3.63,3.71,0,*71
1531839856.84,65010,17.63,73336.3,4.91,3.53,3.53,0,*73
1531839858.08,65011,17.56,73334.8,4.87,3.79,3.81,0,*72
1531839859.33,65012,17.56,73336.0,4.87,3.79,3.79,0,*76
1531839860.58,65013,17.56,73336.0,4.87,3.33,3.23,0,*76
1531839861.8,65014,17.56,73342.3,4.89,3.33,3.33,0,*7E
1531839863.02,65015,17.56,73342.3,4.89,3.53,3.49,0,*74
1531839864.21,65016,17.56,73346.0,4.89,3.63,3.53,0,*7F
1531839865.41,65017,17.56,73340.0,4.89,3.37,3.25,0,*7E
1531839866.67,65018,17.63,73342.8,4.87,3.07,3.19,0,*73
1531839867.9,65019,17.56,73344.3,4.87,3.07,2.95,0,*77
1531839869.13,65020,17.56,73342.0,4.87,2.99,2.89,0,*76
1531839870.35,65021,17.56,73340.5,4.85,3.19,3.23,0,*7D
1531839871.55,65022,17.56,73348.8,4.85,3.33,3.29,0,*7C
1531839872.75,65023,17.56,73350.0,4.85,3.29,3.33,0,*7D
1531839873.98,65024,17.63,73354.5,4.85,3.11,3.07,0,*76
1531839875.21,65025,17.56,73342.8,4.85,2.89,2.89,0,*70
1531839876.44,65026,17.56,73338.3,4.85,3.11,3.07,0,*74
1531839877.67,65027,17.56,73340.5,4.85,3.67,3.67,0,*72
1531839878.9,65028,17.56,73338.0,4.85,4.05,4.01,0,*79
1531839880.1,65029,17.56,73334.0,4.85,4.01,3.93,0,*70
1531839881.35,65030,17.56,73326.0,4.87,4.05,4.01,0,*72
1531839882.58,65031,17.56,73322.3,4.85,4.01,4.01,0,*75
1531839883.76,65032,17.56,73310.8,4.85,3.93,3.89,0,*7D
1531839884.96,65033,17.56,73332.0,4.87,4.15,4.11,0,*71
1531839886.19,65034,17.56,73350.5,4.87,4.11,4.05,0,*77
1531839887.42,65035,17.56,73328.0,4.87,4.05,4.11,0,*76
1531839888.62,65036,17.56,73330.3,4.87,4.11,4.11,0,*70
1531839889.83,65037,17.56,73324.5,4.89,3.25,3.33,0,*78
1531839891.08,65038,17.56,73320.0,4.87,2.05,2.05,0,*7E
1531839892.3,65039,17.56,73324.3,4.85,2.73,2.89,0,*78
1531839893.53,65040,17.56,73326.0,4.87,3.29,3.37,0,*7E
1531839894.76,65041,17.56,73316.5,4.85,3.11,3.11,0,*72
1531839895.99,65042,17.56,73316.0,4.85,3.45,3.49,0,*7D
1531839897.24,65043,17.56,73316.0,4.87,3.37,3.37,0,*72
1531839898.47,65044,17.56,73318.3,4.87,3.33,3.29,0,*7E
1531839899.66,65045,17.56,73312.0,4.85,2.99,2.85,0,*7B
1531839900.89,65046,17.56,73326.0,4.87,3.29,3.19,0,*74
1531839902.12,65047,17.56,73314.3,4.85,2.47,2.25,0,*70
1531839903.34,65048,17.56,73302.0,4.79,2.55,2.31,0,*7A
1531839904.56,65049,17.56,73298.8,4.81,2.69,2.69,0,*7E
1531839905.79,65050,17.56,73308.5,4.79,3.29,3.19,0,*72
1531839906.99,65051,17.56,73312.8,4.81,3.55,3.41,0,*72
1531839908.16,65052,17.56,73324.3,4.81,3.85,3.85,0,*74
1531839909.36,65053,17.56,73320.5,4.81,3.79,3.63,0,*7E
1531839910.56,65054,17.56,73324.0,4.81,3.53,3.63,0,*71
1531839911.79,65055,17.56,73326.8,4.81,3.75,3.97,0,*7F
1531839912.96,65056,17.56,73320.5,4.85,3.93,4.11,0,*79
1531839914.19,65057,17.56,73326.8,4.85,2.59,2.59,0,*75
1531839915.42,65058,17.56,73324.3,4.85,2.89,2.77,0,*7B
1531839916.62,65059,17.56,73324.5,4.81,2.61,2.55,0,*78
1531839917.84,65060,17.56,73322.3,4.81,2.59,2.55,0,*79
1531839919.1,65061,17.56,73314.8,4.79,2.55,2.43,0,*74
1531839920.32,65062,17.56,73324.0,4.79,2.47,2.35,0,*75
1531839921.58,65063,17.56,73328.3,4.79,2.55,2.47,0,*72
1531839922.76,65064,17.56,73318.8,4.77,2.65,2.65,0,*78
1531839923.97,65065,17.56,73300.3,4.77,3.11,2.99,0,*78
1531839925.2,65066,17.56,73304.8,4.75,2.77,2.65,0,*7B
1531839926.44,65067,17.56,73328.5,4.75,2.65,2.51,0,*7E
1531839927.69,65068,17.56,73310.8,4.75,2.17,2.05,0,*75
1531839928.93,65069,17.56,73274.3,4.73,3.07,3.07,0,*71
1531839930.13,65070,17.56,73300.5,4.73,3.81,3.67,0,*71
1531839931.33,65071,17.56,73314.5,4.73,4.01,3.81,0,*77
1531839932.53,65072,17.56,73308.3,4.73,4.07,4.01,0,*7D
1531839933.71,65073,17.56,73324.3,4.73,4.19,4.07,0,*75
1531839934.89,65074,17.56,73318.0,4.77,4.07,3.93,0,*73
1531839936.12,65075,17.56,73308.5,4.77,3.41,3.23,0,*7C
1531839937.38,65076,17.56,73330.5,4.75,3.67,3.37,0,*7C
1531839938.61,65077,17.56,73312.0,4.77,3.53,3.41,0,*79
1531839939.84,65078,17.56,73304.8,4.75,3.89,3.67,0,*77
1531839941.03,65079,17.56,73290.0,4.77,4.07,3.93,0,*7E
1531839942.25,65080,17.56,73308.5,4.75,4.19,4.01,0,*79
1531839943.48,65081,17.56,73328.5,4.77,3.97,3.75,0,*7F
1531839944.71,65082,17.56,73326.8,4.77,3.75,3.53,0,*74
1531839945.91,65083,17.56,73316.5,4.77,3.25,3.23,0,*77
1531839947.14,65084,17.56,73314.8,4.75,2.95,2.85,0,*75
1531839948.4,65085,17.56,73330.3,4.79,3.03,2.81,0,*72
1531839949.62,65086,17.56,73334.5,4.77,2.05,1.93,0,*78
1531839950.85,65087,17.56,73302.0,4.75,2.35,2.25,0,*76
1531839952.07,65088,17.56,73276.0,4.73,3.33,3.23,0,*7F
1531839953.27,65089,17.56,73278.5,4.73,3.89,3.79,0,*70
1531839954.45,65090,17.56,73282.5,4.73,4.19,4.07,0,*78
1531839955.68,65091,17.56,73296.8,4.75,4.31,4.19,0,*7A
1531839956.88,65092,17.56,73324.8,4.75,4.53,4.27,0,*70
1531839958.09,65093,17.56,73304.8,4.77,3.75,3.25,0,*75
1531839959.29,65094,17.56,73300.5,4.77,3.63,3.37,0,*76
1531839960.51,65095,17.56,73312.3,4.75,3.55,3.37,0,*70
1531839961.74,65096,17.56,73314.3,4.77,3.75,3.53,0,*71
1531839963.0,65097,17.56,73310.8,4.79,4.01,3.71,0,*7A
1531839964.21,65098,17.56,73308.5,4.77,4.05,3.93,0,*73
1531839965.42,65099,17.56,73306.5,4.77,4.11,4.05,0,*7F
1531839966.59,65100,17.56,73298.0,4.81,4.49,4.23,0,*7E
1531839967.78,65101,17.56,73300.8,4.79,4.49,4.27,0,*7C
1531839968.98,65102,17.56,73300.8,4.81,4.67,4.45,0,*70
1531839970.18,65103,17.56,73302.0,4.81,4.67,4.45,0,*71
1531839971.39,65104,17.56,73302.0,4.85,4.59,4.41,0,*7B
1531839972.6,65105,17.56,73302.5,4.87,4.37,4.15,0,*71
1531839973.79,65106,17.56,73310.0,4.87,4.49,4.27,0,*7A
1531839974.99,65107,17.56,73312.5,4.87,4.27,4.11,0,*76
1531839976.22,65108,17.56,73312.3,4.91,4.59,4.37,0,*73
1531839977.47,65109,17.56,73308.5,4.91,4.79,4.59,0,*78
1531839978.67,65110,17.56,73306.5,4.91,4.57,4.33,0,*70
1531839979.85,65111,17.56,73310.3,4.89,4.33,4.15,0,*7E
1531839981.04,65112,17.56,73316.0,4.91,4.49,4.23,0,*7C
1531839982.23,65113,17.56,73318.3,4.91,4.41,4.19,0,*7C
1531839983.44,65114,17.56,73316.8,4.91,4.11,3.89,0,*70
1531839984.65,65115,17.56,73314.8,4.89,3.53,3.23,0,*79
1531839985.85,65116,17.56,73312.5,4.89,3.49,3.25,0,*77
1531839987.07,65117,17.56,73314.0,4.89,3.53,3.15,0,*7E
1531839988.3,65118,17.56,73314.0,4.89,3.15,2.77,0,*76
1531839989.52,65119,17.56,73312.5,4.89,3.37,3.11,0,*76
1531839990.75,65120,17.56,73310.8,4.87,3.59,3.45,0,*7B
1531839991.98,65121,17.56,73310.0,4.87,3.71,3.55,0,*71
1531839993.22,65122,17.56,73310.5,4.87,4.05,3.93,0,*7C
1531839994.42,65123,17.56,73306.5,4.87,4.11,3.93,0,*78
1531839995.59,65124,17.56,73306.0,4.89,4.45,4.23,0,*7C
1531839996.8,65125,17.56,73310.3,4.89,4.63,4.41,0,*7D
1531839998.0,65126,17.56,73308.8,4.89,4.63,4.33,0,*7B
1531839999.17,65127,17.56,73312.8,4.89,4.57,4.23,0,*7C
1531840000.4,65128,17.56,73312.8,4.91,4.59,4.33,0,*75
1531840001.6,65129,17.56,73312.5,4.93,4.49,4.27,0,*72
1531840002.8,65130,17.56,73312.0,4.93,4.37,4.19,0,*7E
1531840004.0,65131,17.56,73312.3,4.93,4.49,4.23,0,*7F
1531840005.21,65132,17.56,73314.8,4.93,4.57,4.33,0,*72
1531840006.45,65133,17.56,73320.3,4.93,4.59,4.45,0,*7C
1531840007.68,65134,17.56,73316.5,4.97,4.71,4.53,0,*72
1531840008.9,65135,17.56,73312.8,4.95,4.71,4.53,0,*71
1531840010.11,65136,17.56,73314.5,4.99,4.81,4.63,0,*72
1531840011.33,65137,17.56,73314.3,4.97,4.63,4.49,0,*79
1531840012.53,65138,17.56,73316.0,4.97,4.41,4.27,0,*7E
1531840013.75,65139,17.56,73312.3,4.97,3.81,3.67,0,*77
1531840014.98,65140,17.56,73304.0,4.99,3.53,3.33,0,*79
1531840016.21,65141,17.56,73304.8,4.95,4.05,4.01,0,*76
1531840017.4,65142,17.56,73310.5,4.95,4.53,4.37,0,*73
1531840018.61,65143,17.56,73310.8,4.93,4.57,4.33,0,*74
1531840019.78,65144,17.56,73310.8,4.95,4.49,4.27,0,*7F
1531840020.96,65145,17.56,73312.8,4.95,4.27,4.11,0,*73
1531840022.15,65146,17.56,73324.3,4.95,4.37,4.23,0,*70
1531840023.36,65147,17.56,73310.5,4.95,3.89,3.67,0,*74
1531840024.57,65148,17.56,73308.8,4.95,3.29,3.07,0,*77
1531840025.77,65149,17.56,73310.5,4.95,3.79,3.59,0,*78
1531840026.98,65150,17.56,73312.5,4.95,4.23,4.05,0,*76
1531840028.18,65151,17.56,73320.8,4.95,4.23,4.01,0,*73
1531840029.45,65152,17.56,73304.0,4.93,3.03,2.73,0,*70
1531840030.67,65153,17.56,73306.0,4.91,3.03,2.95,0,*7B
1531840031.9,65154,17.56,73318.5,4.91,4.27,4.01,0,*76
1531840033.1,65155,17.56,73316.0,4.91,4.23,4.07,0,*75
1531840034.32,65156,17.56,73316.5,4.91,4.19,3.79,0,*71
1531840035.57,65157,17.56,73322.5,4.91,2.69,2.59,0,*72
1531840036.75,65158,17.56,73332.8,4.89,1.79,1.83,0,*72
1531840037.98,65159,17.56,73330.3,4.89,2.17,2.17,0,*76
1531840039.15,65160,17.56,73322.3,4.85,2.35,2.35,0,*70
1531840040.38,65161,17.56,73318.3,4.81,2.81,2.81,0,*75
1531840041.61,65162,17.56,73326.5,4.81,2.69,2.81,0,*70
1531840042.84,65163,17.56,73330.3,4.79,2.95,3.03,0,*7E
1531840044.07,65164,17.56,73320.0,4.77,3.23,3.37,0,*7C
1531840045.28,65165,17.56,73316.3,4.77,3.63,3.71,0,*7B
1531840046.49,65166,17.56,73350.8,4.77,4.11,4.31,0,*79
1531840047.67,65167,17.56,73344.8,4.77,4.57,4.57,0,*7A
1531840048.9,65168,17.56,73342.3,4.77,4.67,4.75,0,*76
1531840050.14,65169,17.56,73332.0,4.79,4.71,4.85,0,*71
1531840051.31,65170,17.56,73322.0,4.81,4.81,4.85,0,*71
1531840052.5,65171,17.56,73308.8,4.81,4.37,4.45,0,*71
1531840053.68,65172,17.56,73306.0,4.81,4.33,4.45,0,*76
1531840054.9,65173,17.56,73314.0,4.87,4.53,4.59,0,*7A
1531840056.14,65174,17.56,73330.5,4.85,4.59,4.63,0,*7C
1531840057.38,65175,17.56,73344.3,4.85,4.71,4.71,0,*74
1531840058.58,65176,17.56,73340.3,4.87,4.49,4.41,0,*7D
1531840059.81,65177,17.56,73346.8,4.87,4.53,4.59,0,*7E
1531840061.0,65178,17.56,73322.0,4.87,4.19,4.27,0,*76
1531840062.21,65179,17.56,73320.5,4.87,4.27,4.27,0,*7A
1531840063.43,65180,17.56,73312.8,4.89,4.67,4.75,0,*71
1531840064.69,65181,17.56,73332.3,4.87,4.75,4.75,0,*7D
1531840065.92,65182,17.56,73328.8,4.89,4.67,4.79,0,*7F
1531840067.18,65183,17.56,73326.5,4.93,4.97,4.97,0,*7A
1531840068.41,65184,17.56,73332.0,4.91,4.89,4.93,0,*74
1531840069.68,65185,17.56,73326.5,4.93,4.93,4.97,0,*78
1531840070.87,65186,17.56,73322.5,4.91,4.81,4.89,0,*75
1531840072.11,65187,17.56,73334.8,4.93,4.89,4.93,0,*75
1531840073.29,65188,17.56,73336.8,4.95,4.49,4.57,0,*78
1531840074.49,65189,17.56,73336.8,4.93,4.45,4.49,0,*7C
1531840075.76,65190,17.56,73340.5,4.93,4.71,4.79,0,*70
1531840076.98,65191,17.56,73338.5,4.95,5.01,5.07,0,*79
1531840078.17,65192,17.56,73332.5,4.95,5.19,5.23,0,*75
1531840079.38,65193,17.56,73344.8,4.97,5.07,5.07,0,*7F
1531840080.61,65194,17.56,73336.3,4.97,5.01,5.07,0,*7E
1531840081.88,65195,17.56,73340.3,4.97,4.97,5.01,0,*77
1531840083.11,65196,17.56,73342.3,4.99,4.79,4.79,0,*74
1531840084.29,65197,17.56,73340.3,4.99,4.89,4.89,0,*75
1531840085.5,65198,17.56,73338.0,4.99,4.57,4.75,0,*7A
1531840086.68,65199,17.56,73332.8,4.99,4.15,4.15,0,*7B
1531840087.91,65200,17.56,73336.5,4.97,3.93,4.01,0,*7A
1531840089.11,65201,17.56,73338.0,4.99,3.53,3.59,0,*73
1531840090.33,65202,17.56,73334.8,4.97,2.99,3.07,0,*72
1531840091.56,65203,17.56,73344.3,4.97,3.59,3.71,0,*7F
1531840092.77,65204,17.56,73354.0,4.95,4.05,4.15,0,*71
1531840093.94,65205,17.56,73356.5,4.95,3.55,3.59,0,*7D
1531840095.18,65206,17.56,73348.5,4.93,2.95,3.07,0,*7E
1531840096.42,65207,17.56,73324.5,4.93,3.29,3.41,0,*7B
1531840097.64,65208,17.56,73320.3,4.89,3.33,3.41,0,*74
1531840098.89,65209,17.56,73322.3,4.91,3.37,3.37,0,*79
1531840100.12,65210,17.56,73308.5,4.89,3.41,3.49,0,*70
1531840101.35,65211,17.56,73312.5,4.87,4.05,4.15,0,*76
1531840102.58,65212,17.56,73300.5,4.89,4.75,4.79,0,*76
1531840103.77,65213,17.56,73306.3,4.91,4.89,4.89,0,*72
1531840105.0,65214,17.56,73296.5,4.91,4.79,4.89,0,*7A
1531840106.18,65215,17.56,73302.0,4.89,4.33,4.37,0,*79
1531840107.44,65216,17.56,73322.3,4.93,4.67,4.67,0,*75
1531840108.69,65217,17.56,73330.5,4.93,4.67,4.59,0,*79
1531840109.96,65218,17.56,73338.5,4.93,4.59,4.71,0,*71
1531840111.21,65219,17.56,73336.3,4.91,4.67,4.67,0,*78
1531840112.41,65220,17.56,73338.0,4.93,4.81,4.81,0,*70
1531840113.68,65221,17.56,73328.8,4.93,4.71,4.79,0,*79
1531840114.92,65222,17.56,73330.8,4.93,4.71,4.81,0,*7D
1531840116.17,65223,17.56,73336.5,4.97,4.93,4.97,0,*73
1531840117.41,65224,17.56,73344.0,4.95,4.93,4.97,0,*76
1531840118.65,65225,17.56,73332.5,4.95,4.63,4.75,0,*74
1531840119.89,65226,17.56,73342.3,4.95,4.63,4.75,0,*77
1531840121.11,65227,17.56,73342.5,4.97,4.49,4.59,0,*72
1531840122.34,65228,17.56,73346.8,4.95,4.01,4.01,0,*7E
1531840123.57,65229,17.56,73332.5,4.95,3.49,3.41,0,*77
1531840124.83,65230,17.56,73320.3,4.93,2.59,2.59,0,*71
1531840126.09,65231,17.56,73310.8,4.93,2.47,2.47,0,*70
1531840127.28,65232,17.56,73294.0,4.89,2.89,2.91,0,*71
1531840128.49,65233,17.56,73296.5,4.87,3.89,3.89,0,*77
1531840129.69,65234,17.56,73300.0,4.87,4.19,4.19,0,*70
1531840130.89,65235,17.56,73318.8,4.89,4.57,4.67,0,*7C